Satellite-Ground Cal/Val Site Overpasses Predictions

Prediction of Satellite NPP Overpassing Cal/Val Site: Antarctic Dome C

Ground Cal/Val Site Location: Latitude: -75.10, Longitude: 123.35; Satellite-Ground Site NADIR distance within 100 km.

Table of predicted overpasses for the next 14.0 days since TLE Epoch: 10/10/2020
Interval Starting Time Ending Time Minimum Distance Time Minimum Distance (km)
1 10/10/2020 14:42:31 10/10/2020 14:42:55 10/10/2020 14:42:43 53.30
2 10/11/2020 07:44:12 10/11/2020 07:44:31 10/11/2020 07:44:22 73.05
3 10/12/2020 07:25:18 10/12/2020 07:25:45 10/12/2020 07:25:31 34.96
4 10/14/2020 15:07:43 10/14/2020 15:07:52 10/14/2020 15:07:47 93.65
5 10/15/2020 14:48:43 10/15/2020 14:49:12 10/15/2020 14:48:57 17.76
6 10/17/2020 07:31:31 10/17/2020 07:32:01 10/17/2020 07:31:46 1.90
7 10/20/2020 14:54:57 10/20/2020 14:55:25 10/20/2020 14:55:11 18.88
8 10/21/2020 14:36:15 10/21/2020 14:36:28 10/21/2020 14:36:22 88.07
9 10/22/2020 07:37:47 10/22/2020 07:38:14 10/22/2020 07:38:00 37.99
